TimeBST,TemperatureF,Dew PointF,Humidity,Sea Level PressureIn,VisibilityMPH,Wind Direction,Wind SpeedMPH,Gust SpeedMPH,PrecipitationIn,Events,Conditions,WindDirDegrees,DateUTC
12:20 AM,55.4,51.8,88,29.77,5.0,ENE,5.8,-,N/A,,Unknown,60,2013-09-30 23:20:00
12:50 AM,55,50,78,29.78,6,ENE,4.6,,,,Scattered Clouds,60,2013-09-30 23:50:00
12:50 AM,55.4,51.8,88,29.77,5.0,ENE,4.6,-,N/A,,Unknown,70,2013-09-30 23:50:00
1:20 AM,55.4,51.8,88,29.77,5.0,ENE,4.6,-,N/A,,Unknown,60,2013-10-01 00:20:00
1:50 AM,53.6,51.8,94,29.77,4.3,NE,5.8,-,N/A,,Unknown,50,2013-10-01 00:50:00
2:20 AM,53.6,51.8,94,29.77,4.3,NE,4.6,-,N/A,,Unknown,50,2013-10-01 01:20:00
2:50 AM,53.6,51.8,94,29.77,3.7,ENE,6.9,-,N/A,,Unknown,70,2013-10-01 01:50:00
3:20 AM,53.6,51.8,94,29.77,3.7,ENE,5.8,-,N/A,,Unknown,70,2013-10-01 02:20:00
3:50 AM,54,50,83,29.77,4,ENE,4.6,,,,Light Haze,60,2013-10-01 02:50:00
3:50 AM,53.6,51.8,94,29.77,3.7,ENE,5.8,-,N/A,,Unknown,70,2013-10-01 02:50:00
4:20 AM,53.6,50.0,88,29.77,3.7,ENE,4.6,-,N/A,,Unknown,70,2013-10-01 03:20:00
4:50 AM,51.8,50.0,94,29.77,3.7,ENE,5.8,-,N/A,,Unknown,70,2013-10-01 03:50:00
5:20 AM,53.6,50.0,88,29.77,3.7,ENE,5.8,-,N/A,,Unknown,70,2013-10-01 04:20:00
5:50 AM,53.6,51.8,94,29.77,3.7,ENE,6.9,-,N/A,,Unknown,60,2013-10-01 04:50:00
6:20 AM,53.6,51.8,94,29.77,3.7,ENE,8.1,-,N/A,,Unknown,60,2013-10-01 05:20:00
6:50 AM,54,50,83,29.78,4,ENE,5.8,,,,Light Haze,60,2013-10-01 05:50:00
6:50 AM,53.6,51.8,94,29.77,3.7,ENE,6.9,-,N/A,,Unknown,70,2013-10-01 05:50:00
7:20 AM,53.6,51.8,94,29.77,3.7,ENE,5.8,-,N/A,,Mostly Cloudy,70,2013-10-01 06:20:00
7:50 AM,53.6,51.8,94,29.80,3.7,ENE,4.6,-,N/A,,Mostly Cloudy,70,2013-10-01 06:50:00
8:20 AM,55.4,51.8,88,29.80,3.7,ENE,5.8,-,N/A,,Mostly Cloudy,60,2013-10-01 07:20:00
8:50 AM,55.4,53.6,94,29.80,3.7,East,6.9,-,N/A,,Mostly Cloudy,90,2013-10-01 07:50:00
9:20 AM,57.2,53.6,88,29.80,3.7,East,9.2,-,N/A,,Mostly Cloudy,100,2013-10-01 08:20:00
9:50 AM,57,53,81,29.80,5,East,8.1,,,,Light Haze,90,2013-10-01 08:50:00
9:50 AM,57.2,53.6,88,29.80,3.7,East,8.1,-,N/A,,Mostly Cloudy,90,2013-10-01 08:50:00
10:20 AM,59.0,53.6,82,29.80,4.3,East,10.4,-,N/A,,Mostly Cloudy,80,2013-10-01 09:20:00
10:50 AM,60.8,53.6,77,29.80,5.0,East,13.8,-,N/A,,Mostly Cloudy,90,2013-10-01 09:50:00
11:20 AM,60.8,53.6,77,29.80,5.6,East,11.5,-,N/A,,Mostly Cloudy,90,2013-10-01 10:20:00
11:50 AM,60.8,53.6,77,29.80,5.6,East,11.5,-,N/A,,Mostly Cloudy,90,2013-10-01 10:50:00
12:20 PM,60.8,55.4,82,29.80,5.6,East,11.5,-,N/A,,Scattered Clouds,90,2013-10-01 11:20:00
12:50 PM,62,54,68,29.80,9,East,11.5,,,,Mostly Cloudy,90,2013-10-01 11:50:00
12:50 PM,62.6,55.4,77,29.80,6.2,East,12.7,-,N/A,,Mostly Cloudy,90,2013-10-01 11:50:00
1:20 PM,62.6,55.4,77,29.80,6.2,East,12.7,-,N/A,,Mostly Cloudy,90,2013-10-01 12:20:00
1:50 PM,62.6,55.4,77,29.80,6.2,ESE,10.4,-,N/A,,Mostly Cloudy,110,2013-10-01 12:50:00
2:20 PM,62.6,55.4,77,29.77,6.2,ESE,16.1,-,N/A,,Mostly Cloudy,120,2013-10-01 13:20:00
2:50 PM,62.6,55.4,77,29.80,6.2,East,12.7,-,N/A,,Mostly Cloudy,100,2013-10-01 13:50:00
3:20 PM,62.6,55.4,77,29.80,6.2,ESE,12.7,-,N/A,,Mostly Cloudy,110,2013-10-01 14:20:00
3:50 PM,63,52,59,29.79,12,East,11.5,,,Rain,Rain,100,2013-10-01 14:50:00
3:50 PM,62.6,53.6,72,29.80,6.2,East,12.7,-,N/A,,Mostly Cloudy,100,2013-10-01 14:50:00
4:20 PM,62.6,53.6,72,29.80,6.2,ESE,12.7,-,N/A,,Mostly Cloudy,110,2013-10-01 15:20:00
4:50 PM,62.6,53.6,72,29.80,6.2,ESE,12.7,-,N/A,,Mostly Cloudy,120,2013-10-01 15:50:00
5:20 PM,62.6,53.6,72,29.80,6.2,East,15.0,-,N/A,,Mostly Cloudy,100,2013-10-01 16:20:00
5:50 PM,60.8,51.8,72,29.80,6.2,ESE,13.8,-,N/A,,Mostly Cloudy,110,2013-10-01 16:50:00
6:20 PM,60.8,51.8,72,29.80,6.2,ESE,12.7,-,N/A,,Mostly Cloudy,110,2013-10-01 17:20:00
6:50 PM,61,50,57,29.81,12,East,12.7,,,,Mostly Cloudy,100,2013-10-01 17:50:00
6:50 PM,60.8,50.0,68,29.80,6.2,ESE,12.7,-,N/A,,Mostly Cloudy,110,2013-10-01 17:50:00
7:20 PM,60.8,50.0,68,29.80,6.2,ESE,12.7,-,N/A,,Overcast,110,2013-10-01 18:20:00
7:50 PM,60.8,53.6,77,29.80,6.2,East,11.5,-,N/A,,Mostly Cloudy,90,2013-10-01 18:50:00
8:20 PM,60.8,53.6,77,29.83,6.2,East,9.2,-,N/A,,Mostly Cloudy,100,2013-10-01 19:20:00
8:50 PM,60.8,53.6,77,29.83,6.2,East,9.2,-,N/A,,Mostly Cloudy,90,2013-10-01 19:50:00
9:20 PM,60.8,53.6,77,29.83,6.2,East,9.2,-,N/A,,Mostly Cloudy,90,2013-10-01 20:20:00
9:50 PM,60,52,66,29.83,10,East,9.2,,,,Scattered Clouds,90,2013-10-01 20:50:00
9:50 PM,60.8,51.8,72,29.83,6.2,East,10.4,-,N/A,,Mostly Cloudy,90,2013-10-01 20:50:00
10:20 PM,60.8,51.8,72,29.83,6.2,East,10.4,-,N/A,,Mostly Cloudy,90,2013-10-01 21:20:00
10:50 PM,60.8,51.8,72,29.80,6.2,East,11.5,-,N/A,,Mostly Cloudy,90,2013-10-01 21:50:00
11:20 PM,60.8,51.8,72,29.80,6.2,East,11.5,-,N/A,,Mostly Cloudy,100,2013-10-01 22:20:00
11:50 PM,60.8,51.8,72,29.80,6.2,ESE,10.4,-,N/A,,Mostly Cloudy,110,2013-10-01 22:50:00